Hourly Weather Roundup
Issued by NWS Central Illinois

Home | Current Version | Previous Version | Text Only | Print | Product List | Glossary On
Versions: 1 2 3 4 5 6 7 8 9 10 11 12 13 14 15 16 17 18 19 20 21 22 23 24 25 26 27 28 29 30 31 32 33 34 35 36 37 38 39 40 41 42 43 44 45 46 47 48 49 50
000
NZUS43 KILX 280910
HWRILX

AREA WEATHER ROUNDUP
NATIONAL WEATHER SERVICE, LINCOLN IL
400 AM CDT SAT MAY 28 2016


CITY           SKY/WX    TMP DP  RH WIND       PRES   REMARKS
BLOOMINGTON    CLOUDY    69  68  97 S16       29.87R
CHAMPAIGN      CLOUDY    70  65  84 S17       29.90R
DANVILLE       MOCLDY    70  64  82 S15       29.90R
DECATUR        CLOUDY    71  64  78 S13       29.88R
EFFINGHAM      CLOUDY    70  67  92 SE9       29.93R
FLORA          CLOUDY    70  67  89 S6        29.94R
GALESBURG      CLOUDY    68  66  94 S9        29.79R
JACKSONVILLE   CLOUDY    69  66  90 S12       29.83R
LACON          CLOUDY    70  65  83 S10G20    29.81R
LAWRENCEVILLE  CLOUDY    73  66  78 S12       29.94R
LITCHFIELD     CLOUDY    68  64  86 S13       29.89R
$$


CITY           SKY/WX    TMP DP  RH WIND       PRES   REMARKS
LINCOLN        CLOUDY    71  67  88 S10       29.85R
MACOMB         CLOUDY    69  67  94 S10       29.81S
MATTOON        CLOUDY    71  63  75 S10G18    29.91R
MT CARMEL AP   CLOUDY    73  64  72 S10       29.94R
OLNEY-NOBLE AP CLOUDY    70  66  88 S8        29.94R
PARIS          CLOUDY    70  65  85 S8        29.93S
PEORIA         CLOUDY    70  66  87 S13       29.82R
PONTIAC        CLOUDY    71  67  88 S15       29.86S
RANTOUL        CLOUDY    71  67  85 S14       29.89R
ROBINSON       CLOUDY    72  65  78 S7        29.94R
SPRINGFIELD    PTCLDY    71  65  81 S13       29.85R
TAYLORVILLE    CLOUDY    68  66  92 S10       29.88R
$$

...REGIONAL REPORTS...


CITY           SKY/WX    TMP DP  RH WIND       PRES   REMARKS
CHICAGO O`HARE CLOUDY    68  64  87 S8        29.85S
KANKAKEE       CLOUDY    71  64  77 S13G18    29.88S
MOLINE         CLOUDY    70  64  81 S10G20    29.74S
MOUNT STERLING CLOUDY    68  66  93 S9        29.80S
MOUNT VERNON   CLOUDY    70  63  78 S7        29.93R
PITTSFIELD     PTCLDY    69  67  94 S10       29.83R
QUINCY         CLOUDY    69  66  90 S14       29.78S
ROCKFORD       CLOUDY    69  65  86 SE13      29.82S
$$


CITY           SKY/WX    TMP DP  RH WIND       PRES   REMARKS
BURLINGTON     MOCLDY    66  66 100 S8        29.76R
CEDAR RAPIDS   LGT RAIN  64  64 100 SW8       29.75R FOG
DES MOINES     LGT RAIN  64  60  87 S8        29.74R
KIRKSVILLE     CLOUDY    64  63  96 SE5       29.76S
OTTUMWA        MOCLDY    63  62  97 NE5       29.74F
ST LOUIS       PTCLDY    69  64  84 S7        29.87R
$$


CITY           SKY/WX    TMP DP  RH WIND       PRES   REMARKS
TERRE HAUTE    CLOUDY    74  64  71 S12       29.94S
EVANSVILLE     CLOUDY    72  65  78 SE5       29.96R
INDIANAPOLIS   CLOUDY    73  64  73 S10       29.96R
LAFAYETTE      CLOUDY    74  62  66 S10G18    29.92S
MADISON        CLOUDY    68  66  93 S12       29.78S
MILWAUKEE      CLOUDY    70  64  81 S9        29.84S
$$





USA.gov is the U.S. government's official web portal to all federal, state and local government web resources and services.